TimeEST,TemperatureF,Dew PointF,Humidity,Sea Level PressureIn,VisibilityMPH,Wind Direction,Wind SpeedMPH,Gust SpeedMPH,PrecipitationIn,Events,Conditions,WindDirDegrees,DateUTC
12:15 AM,31.1,24.4,76,30.04,10.0,West,11.5,16.1,N/A,,Clear,280,2013-02-12 05:15:00
12:35 AM,31.1,24.3,76,30.05,10.0,West,12.7,17.3,N/A,,Clear,280,2013-02-12 05:35:00
12:55 AM,30.9,24.3,76,30.06,10.0,West,10.4,-,N/A,,Clear,280,2013-02-12 05:55:00
1:15 AM,30.4,24.3,78,30.06,10.0,WNW,9.2,-,N/A,,Clear,290,2013-02-12 06:15:00
1:35 AM,30.2,23.9,77,30.07,10.0,WNW,8.1,-,N/A,,Clear,290,2013-02-12 06:35:00
1:55 AM,30.0,23.9,78,30.07,10.0,West,8.1,-,N/A,,Clear,280,2013-02-12 06:55:00
2:15 AM,29.3,23.9,80,30.08,10.0,West,9.2,-,N/A,,Clear,270,2013-02-12 07:15:00
2:35 AM,29.3,23.9,80,30.08,10.0,West,9.2,-,N/A,,Mostly Cloudy,270,2013-02-12 07:35:00
2:55 AM,29.3,23.4,78,30.09,10.0,West,9.2,-,N/A,,Scattered Clouds,270,2013-02-12 07:55:00
3:15 AM,29.1,22.8,77,30.09,10.0,West,10.4,16.1,N/A,,Scattered Clouds,280,2013-02-12 08:15:00
3:35 AM,29.3,22.8,77,30.09,10.0,West,9.2,-,N/A,,Mostly Cloudy,280,2013-02-12 08:35:00
3:55 AM,28.8,22.6,78,30.08,10.0,WNW,8.1,-,N/A,,Scattered Clouds,290,2013-02-12 08:55:00
4:15 AM,28.8,22.6,78,30.08,10.0,West,8.1,-,N/A,,Scattered Clouds,280,2013-02-12 09:15:00
4:35 AM,28.4,22.8,80,30.09,10.0,West,9.2,-,N/A,,Mostly Cloudy,280,2013-02-12 09:35:00
4:55 AM,28.4,22.6,79,30.09,10.0,West,8.1,-,N/A,,Overcast,280,2013-02-12 09:55:00
5:15 AM,28.8,23.0,79,30.09,10.0,West,9.2,-,N/A,,Overcast,280,2013-02-12 10:15:00
5:35 AM,28.9,23.0,78,30.10,10.0,WNW,8.1,17.3,N/A,,Overcast,290,2013-02-12 10:35:00
5:55 AM,28.8,22.6,78,30.10,10.0,WNW,9.2,-,N/A,,Overcast,290,2013-02-12 10:55:00
6:15 AM,28.8,22.6,78,30.10,10.0,WNW,5.8,-,N/A,,Overcast,290,2013-02-12 11:15:00
6:35 AM,28.6,22.6,78,30.10,10.0,WNW,8.1,-,N/A,,Overcast,300,2013-02-12 11:35:00
6:55 AM,28.4,22.1,77,30.10,10.0,WNW,9.2,-,N/A,,Overcast,300,2013-02-12 11:55:00
7:15 AM,28.4,22.5,78,30.11,10.0,West,4.6,-,N/A,,Overcast,280,2013-02-12 12:15:00
7:35 AM,27.9,21.9,78,30.11,10.0,WNW,3.5,-,N/A,,Mostly Cloudy,290,2013-02-12 12:35:00
7:55 AM,27.5,22.1,80,30.11,10.0,West,3.5,-,N/A,,Mostly Cloudy,280,2013-02-12 12:55:00
8:15 AM,27.5,22.1,80,30.11,10.0,WSW,4.6,-,N/A,,Mostly Cloudy,250,2013-02-12 13:15:00
8:35 AM,27.5,22.8,83,30.12,10.0,West,3.5,-,N/A,,Scattered Clouds,260,2013-02-12 13:35:00
8:55 AM,28.2,22.8,80,30.12,10.0,WSW,3.5,-,N/A,,Scattered Clouds,250,2013-02-12 13:55:00
9:15 AM,29.1,23.2,78,30.12,10.0,WSW,6.9,-,N/A,,Scattered Clouds,250,2013-02-12 14:15:00
9:35 AM,29.5,23.2,77,30.12,10.0,West,6.9,-,N/A,,Scattered Clouds,260,2013-02-12 14:35:00
9:55 AM,30.2,23.2,75,30.11,10.0,West,4.6,-,N/A,,Scattered Clouds,260,2013-02-12 14:55:00
10:15 AM,30.9,23.5,74,30.10,10.0,West,4.6,-,N/A,,Scattered Clouds,280,2013-02-12 15:15:00
10:35 AM,31.6,23.5,72,30.10,10.0,West,4.6,-,N/A,,Scattered Clouds,280,2013-02-12 15:35:00
10:55 AM,32.0,24.3,73,30.11,10.0,SW,6.9,-,N/A,,Clear,230,2013-02-12 15:55:00
11:15 AM,32.9,24.8,72,30.11,10.0,West,6.9,-,N/A,,Clear,260,2013-02-12 16:15:00
11:35 AM,33.4,25.2,72,30.10,10.0,SW,3.5,-,N/A,,Clear,220,2013-02-12 16:35:00
11:55 AM,34.7,25.5,69,30.10,10.0,WSW,5.8,-,N/A,,Clear,250,2013-02-12 16:55:00
12:15 PM,35.4,26.2,69,30.08,10.0,West,6.9,-,N/A,,Clear,260,2013-02-12 17:15:00
12:35 PM,35.6,26.1,68,30.05,10.0,WSW,5.8,-,N/A,,Clear,250,2013-02-12 17:35:00
12:55 PM,36.5,26.4,67,30.03,10.0,WSW,5.8,-,N/A,,Clear,250,2013-02-12 17:55:00
1:15 PM,36.7,26.6,67,30.03,10.0,West,10.4,-,N/A,,Clear,270,2013-02-12 18:15:00
1:35 PM,37.8,27.3,66,30.04,10.0,West,10.4,-,N/A,,Clear,270,2013-02-12 18:35:00
1:55 PM,37.9,27.5,66,30.03,10.0,WSW,10.4,-,N/A,,Clear,240,2013-02-12 18:55:00
2:15 PM,38.3,28.2,67,30.04,10.0,SW,10.4,-,N/A,,Clear,230,2013-02-12 19:15:00
2:35 PM,39.6,28.9,66,30.03,10.0,WSW,10.4,17.3,N/A,,Clear,250,2013-02-12 19:35:00
2:55 PM,39.7,28.6,64,30.02,10.0,SW,12.7,-,N/A,,Clear,230,2013-02-12 19:55:00
3:15 PM,40.6,28.2,61,30.02,10.0,WSW,10.4,17.3,N/A,,Clear,250,2013-02-12 20:15:00
3:35 PM,41.5,28.9,61,30.03,10.0,West,13.8,-,N/A,,Clear,270,2013-02-12 20:35:00
3:55 PM,41.0,27.9,60,30.03,10.0,West,11.5,17.3,N/A,,Clear,280,2013-02-12 20:55:00
4:15 PM,40.6,28.0,61,30.03,10.0,West,11.5,-,N/A,,Clear,270,2013-02-12 21:15:00
4:35 PM,40.6,28.2,61,30.02,10.0,WNW,5.8,-,N/A,,Clear,300,2013-02-12 21:35:00
4:55 PM,40.5,28.6,63,30.01,10.0,West,10.4,-,N/A,,Clear,260,2013-02-12 21:55:00
5:15 PM,40.1,28.4,63,30.00,10.0,West,9.2,-,N/A,,Clear,260,2013-02-12 22:15:00
5:35 PM,38.7,27.5,64,29.99,10.0,West,8.1,-,N/A,,Clear,260,2013-02-12 22:35:00
5:55 PM,37.8,26.8,65,29.99,10.0,West,8.1,-,N/A,,Clear,260,2013-02-12 22:55:00
6:15 PM,36.9,27.9,70,29.98,10.0,West,5.8,-,N/A,,Clear,270,2013-02-12 23:15:00
6:35 PM,36.1,28.4,73,29.97,10.0,WNW,5.8,-,N/A,,Clear,300,2013-02-12 23:35:00
6:55 PM,35.6,28.0,74,29.98,10.0,WNW,6.9,-,N/A,,Clear,300,2013-02-12 23:55:00
7:15 PM,33.8,27.5,78,29.98,10.0,NW,5.8,-,N/A,,Clear,310,2013-02-13 00:15:00
7:35 PM,32.7,27.5,81,29.98,10.0,NW,5.8,-,N/A,,Clear,320,2013-02-13 00:35:00
7:55 PM,32.0,27.1,82,29.97,7.0,NW,6.9,-,N/A,,Clear,320,2013-02-13 00:55:00
8:15 PM,31.6,26.6,82,29.97,7.0,NW,4.6,-,N/A,,Clear,310,2013-02-13 01:15:00
8:35 PM,31.1,26.1,82,29.97,7.0,NW,6.9,-,N/A,,Clear,320,2013-02-13 01:35:00
9:15 PM,30.0,25.5,83,29.96,7.0,NNW,5.8,-,N/A,,Clear,330,2013-02-13 02:15:00
9:35 PM,29.7,25.3,84,29.95,7.0,NNW,4.6,-,N/A,,Clear,330,2013-02-13 02:35:00
9:55 PM,29.3,25.2,85,29.96,7.0,Calm,Calm,-,N/A,,Clear,0,2013-02-13 02:55:00
10:15 PM,29.3,25.2,85,29.95,7.0,NNW,3.5,-,N/A,,Clear,340,2013-02-13 03:15:00
10:35 PM,29.3,25.3,85,29.95,7.0,North,4.6,-,N/A,,Clear,360,2013-02-13 03:35:00
10:55 PM,29.1,24.8,84,29.95,7.0,NNW,3.5,-,N/A,,Clear,340,2013-02-13 03:55:00
11:15 PM,28.8,24.6,84,29.95,7.0,NNW,3.5,-,N/A,,Clear,340,2013-02-13 04:15:00
11:35 PM,28.6,24.6,85,29.94,7.0,Calm,Calm,-,N/A,,Clear,0,2013-02-13 04:35:00
11:55 PM,28.2,24.3,85,29.94,7.0,Calm,Calm,-,N/A,,Scattered Clouds,0,2013-02-13 04:55:00